Location: Le Castellard
(44.1862°N, 6.1301°E)
Time: 12:11:43
(UTC+00:00)

Cosmos 2344 - Pass Details

Date: 18 January 2020
Orbit: 1255 x 2987 km, 63.3° (Epoch: 16 February)

Event Time Altitude Azimuth Distance (km) Brightness Sun altitude
Exits shadow 05:55:03 - 240° (WSW) 4,247 5.9 -12.6°
Rises 05:55:04 0° 240° (WSW) 4,239 5.9 -12.6°
Reaches altitude 10° 05:57:57 10° 247° (WSW) 3,236 5.3 -12.1°
Maximum altitude 06:05:07 47° 320° (NW) 1,664 3.9 -10.9°
Drops below altitude 10° 06:13:09 10° 33° (NNE) 3,618 6.1 -9.5°
Sets 06:16:34 0° 40° (NE) 4,789 6.9 -8.9°
